DB0SMU-12 Weather Reports


time (UTC)temp
C
wind
direction
speed
KPH
gust
KPH
rain 1hr
cm
rain 24hr
cm
rain mn
cm
humidity
%
barometer
mb
20260507045058 8 249 14.5 25.7 0.00 0.05 0.00 79 1013.4
20260507044757 8 233 16.1 25.7 0.00 0.05 0.00 80 1013.3
20260507044457 8 243 16.1 25.7 0.00 0.05 0.00 80 1013.3
20260507044156 8 235 17.7 25.7 0.00 0.05 0.00 80 1013.3
20260507043855 8 236 14.5 22.5 0.00 0.05 0.00 80 1013.3
20260507043554 8 243 14.5 20.9 0.00 0.05 0.00 80 1013.2
20260507043253 8 235 14.5 19.3 0.00 0.05 0.00 81 1013.1
20260507042952 8 239 14.5 19.3 0.00 0.05 0.00 80 1013.1
20260507042651 8 230 12.9 19.3 0.00 0.05 0.00 80 1013.1
20260507042351 8 236 14.5 22.5 0.00 0.05 0.00 80 1013.1
20260507042050 8 234 12.9 24.1 0.00 0.05 0.00 80 1013.0
20260507041749 8 234 16.1 24.1 0.00 0.05 0.00 80 1013.0
20260507041448 8 235 14.5 24.1 0.00 0.05 0.00 80 1013.0
20260507041147 8 245 12.9 19.3 0.00 0.05 0.00 80 1013.0
20260507040846 8 239 11.3 19.3 0.00 0.05 0.00 80 1012.9
20260507040545 8 249 9.7 19.3 0.00 0.05 0.00 80 1012.8
20260507040245 8 234 11.3 19.3 0.00 0.05 0.00 80 1013.0
20260507035944 8 231 12.9 19.3 0.00 0.05 0.00 80 1012.9
20260507035643 8 238 11.3 19.3 0.00 0.05 0.00 80 1012.9
20260507035342 8 253 9.7 20.9 0.00 0.05 0.00 80 1012.8
20260507035041 8 241 12.9 20.9 0.00 0.05 0.00 80 1012.8
20260507034740 8 239 12.9 20.9 0.00 0.05 0.00 80 1012.8
20260507034437 8 242 11.3 19.3 0.00 0.05 0.00 80 1012.8
20260507034136 8 230 14.5 19.3 0.00 0.05 0.00 80 1012.8
20260507033835 8 233 12.9 17.7 0.00 0.05 0.00 80 1012.6
20260507033534 8 240 9.7 19.3 0.00 0.05 0.00 80 1012.7
20260507033233 8 236 12.9 19.3 0.00 0.05 0.00 80 1012.6
20260507032933 8 236 12.9 19.3 0.00 0.05 0.00 80 1012.6
20260507032632 8 237 12.9 19.3 0.00 0.05 0.00 80 1012.6
20260507032331 8 233 14.5 20.9 0.00 0.05 0.00 80 1012.6
20260507032030 8 231 14.5 20.9 0.00 0.05 0.00 80 1012.6
20260507031729 8 234 14.5 20.9 0.00 0.05 0.00 80 1012.5
20260507031428 8 243 11.3 24.1 0.00 0.05 0.00 80 1012.5
20260507031127 8 231 16.1 25.7 0.00 0.05 0.00 80 1012.4
20260507030826 8 240 17.7 25.7 0.00 0.05 0.00 80 1012.6
20260507030526 8 239 19.3 25.7 0.00 0.05 0.00 80 1012.6
20260507030225 8 230 17.7 24.1 0.00 0.05 0.00 80 1012.5
20260507025924 8 234 16.1 30.6 0.00 0.05 0.00 80 1012.4
20260507025623 8 230 19.3 30.6 0.00 0.05 0.00 80 1012.4
20260507025319 8 238 16.1 30.6 0.00 0.05 0.00 80 1012.4
20260507025018 8 237 20.9 29.0 0.00 0.05 0.00 80 1012.4
20260507024717 8 233 17.7 27.4 0.00 0.05 0.00 81 1012.3
20260507024417 8 247 14.5 22.5 0.00 0.05 0.00 80 1012.3
20260507024116 8 236 16.1 22.5 0.00 0.05 0.00 81 1012.3
20260507023815 8 237 16.1 20.9 0.00 0.05 0.00 81 1012.3
20260507023514 8 233 12.9 19.3 0.00 0.05 0.00 81 1012.3
20260507023213 8 232 11.3 19.3 0.00 0.05 0.00 82 1012.3
20260507022912 7 230 12.9 17.7 0.00 0.05 0.00 82 1012.4
20260507022611 7 236 11.3 14.5 0.00 0.05 0.00 82 1012.4
20260507022310 7 232 9.7 12.9 0.00 0.05 0.00 82 1012.4
20260507022010 7 228 9.7 12.9 0.00 0.05 0.00 82 1012.4
20260507021709 7 224 8.0 12.9 0.00 0.05 0.00 82 1012.3
20260507021408 7 224 11.3 14.5 0.00 0.05 0.00 82 1012.2
20260507021107 7 226 9.7 16.1 0.00 0.05 0.00 82 1012.3
20260507020806 7 228 9.7 16.1 0.00 0.05 0.00 82 1012.3
20260507020505 7 230 9.7 16.1 0.00 0.05 0.00 83 1012.3
20260507020204 7 229 9.7 14.5 0.00 0.05 0.00 83 1012.3
20260507015903 7 229 9.7 19.3 0.00 0.05 0.00 82 1012.3
20260507015602 7 231 9.7 19.3 0.00 0.05 0.00 82 1012.3
20260507015305 7 228 8.0 19.3 0.00 0.05 0.00 82 1012.2
20260507015000 7 225 9.7 14.5 0.00 0.05 0.00 81 1012.3
20260507014700 7 231 9.7 14.5 0.00 0.05 0.00 81 1012.2
20260507014359 7 237 11.3 14.5 0.00 0.05 0.00 81 1012.3
20260507014058 7 239 9.7 14.5 0.00 0.05 0.00 81 1012.2
20260507013757 7 233 9.7 14.5 0.00 0.05 0.00 81 1012.2
20260507013456 7 239 9.7 16.1 0.00 0.05 0.00 81 1012.1
20260507013155 7 238 9.7 16.1 0.00 0.05 0.00 80 1012.1
20260507012854 7 235 11.3 17.7 0.00 0.05 0.00 81 1012.1
20260507012554 7 237 12.9 17.7 0.00 0.05 0.00 81 1012.0
20260507012253 7 233 12.9 17.7 0.00 0.05 0.00 80 1012.1
20260507011952 7 236 12.9 17.7 0.00 0.05 0.00 80 1012.0
20260507011651 7 236 14.5 19.3 0.00 0.05 0.00 80 1012.0
20260507011350 7 232 12.9 19.3 0.00 0.05 0.00 80 1012.1
20260507011049 7 230 12.9 19.3 0.00 0.05 0.00 80 1012.1
20260507010749 7 233 12.9 16.1 0.00 0.05 0.00 79 1012.1
20260507010448 7 234 12.9 17.7 0.00 0.05 0.00 80 1012.1
20260507010147 7 233 12.9 17.7 0.00 0.05 0.00 80 1012.1
20260507005846 7 225 14.5 17.7 0.00 0.05 0.00 80 1012.1
20260507005545 7 225 12.9 16.1 0.00 0.05 0.00 79 1012.1
20260507005244 7 226 12.9 16.1 0.00 0.05 0.00 79 1012.2
20260507004944 7 225 11.3 16.1 0.00 0.05 0.00 79 1012.2
20260507004643 7 225 12.9 17.7 0.00 0.05 0.00 79 1012.2
20260507004342 7 225 11.3 17.7 0.00 0.05 0.00 79 1012.2
20260507004041 7 226 12.9 19.3 0.00 0.05 0.00 80 1012.1
20260507003740 8 228 14.5 20.9 0.00 0.05 0.00 80 1012.1
20260507003439 8 230 14.5 20.9 0.00 0.05 0.00 80 1012.2
20260507003138 8 230 14.5 20.9 0.00 0.05 0.00 80 1012.1
20260507002837 8 225 14.5 22.5 0.00 0.05 0.00 80 1012.1
20260507002534 8 227 16.1 22.5 0.00 0.05 0.00 80 1012.2
20260507002233 8 226 14.5 22.5 0.00 0.05 0.00 80 1012.1
20260507001932 8 227 14.5 19.3 0.00 0.05 0.00 79 1012.2
20260507001631 8 227 12.9 19.3 0.00 0.05 0.00 79 1012.2
20260507001330 8 226 14.5 19.3 0.00 0.05 0.00 79 1012.1
20260507001029 8 228 12.9 19.3 0.00 0.05 0.00 79 1012.1
20260507000728 8 227 14.5 19.3 0.00 0.05 0.00 79 1012.1
20260507000428 8 230 12.9 19.3 0.00 0.05 0.00 79 1012.2
20260507000127 8 227 11.3 17.7 0.00 0.05 0.00 78 1012.1
20260506235826 8 228 12.9 17.7 0.00 0.05 0.00 78 1012.1
20260506235525 8 229 14.5 17.7 0.00 0.05 0.00 78 1012.2
20260506235224 8 226 11.3 14.5 0.00 0.05 0.00 78 1012.2
20260506234923 8 237 11.3 16.1 0.00 0.05 0.00 78 1012.2
20260506234623 8 237 9.7 16.1 0.00 0.05 0.00 78 1012.3
20260506234322 8 229 11.3 16.1 0.00 0.05 0.00 78 1012.2
20260506234021 8 230 11.3 14.5 0.00 0.05 0.00 78 1012.2
20260506233720 8 228 11.3 14.5 0.00 0.05 0.00 78 1012.2
20260506233419 8 226 11.3 14.5 0.00 0.05 0.00 78 1012.3
20260506233118 8 229 11.3 14.5 0.00 0.05 0.00 78 1012.3
20260506232817 8 237 9.7 17.7 0.00 0.05 0.00 78 1012.2
20260506232516 8 233 11.3 17.7 0.00 0.05 0.00 77 1012.2
20260506232216 8 238 9.7 17.7 0.00 0.05 0.00 77 1012.2
20260506231912 8 242 11.3 17.7 0.00 0.05 0.00 77 1012.1
20260506231611 8 244 11.3 17.7 0.00 0.05 0.00 77 1012.2
20260506231310 8 248 9.7 14.5 0.00 0.05 0.00 77 1012.0
20260506231009 8 257 9.7 22.5 0.00 0.05 0.00 77 1012.0
20260506230708 9 240 9.7 22.5 0.00 0.05 0.00 77 1012.0
20260506230407 9 247 12.9 22.5 0.00 0.05 0.00 77 1012.0
20260506230106 9 234 12.9 19.3 0.00 0.05 0.00 77 1011.9
20260506225806 9 245 12.9 20.9 0.00 0.05 0.00 77 1011.9
20260506225505 9 245 12.9 20.9 0.00 0.05 0.00 77 1012.0
20260506225204 9 236 16.1 20.9 0.00 0.05 0.00 77 1011.9
20260506224903 9 239 16.1 20.9 0.00 0.05 0.00 77 1011.9
20260506224602 9 242 14.5 22.5 0.00 0.05 0.00 77 1011.9
20260506224301 9 236 14.5 22.5 0.00 0.05 0.00 77 1011.9
20260506224001 9 236 16.1 22.5 0.00 0.05 0.00 76 1011.9
20260506223700 9 238 16.1 22.5 0.00 0.05 0.00 76 1011.9
20260506223359 9 243 16.1 27.4 0.00 0.05 0.00 76 1011.8
20260506223058 9 239 16.1 30.6 0.00 0.05 0.00 76 1011.9
20260506222757 9 231 16.1 30.6 0.00 0.05 0.00 76 1011.8
20260506222456 9 244 16.1 30.6 0.00 0.05 0.00 75 1011.8
20260506222155 9 237 17.7 24.1 0.00 0.05 0.00 75 1011.9
20260506221855 9 231 16.1 25.7 0.00 0.05 0.00 75 1011.8
20260506221554 9 237 14.5 25.7 0.00 0.05 0.00 75 1011.8
20260506221253 9 240 16.1 29.0 0.00 0.05 0.00 75 1011.8
20260506220952 9 235 17.7 29.0 0.00 0.05 0.00 76 1011.7
20260506220651 9 235 20.9 29.0 0.00 0.05 0.00 75 1011.7
20260506220350 9 233 16.1 27.4 0.00 0.05 0.00 76 1011.8
20260506220049 9 230 19.3 29.0 0.00 0.05 0.00 76 1011.7
20260506215748 9 235 16.1 29.0 0.00 0.05 0.00 76 1011.7
20260506215445 9 240 16.1 29.0 0.00 0.05 0.00 76 1011.6
20260506215144 9 234 17.7 27.4 0.00 0.05 0.00 76 1011.6
20260506214843 9 239 17.7 27.4 0.00 0.05 0.00 77 1011.6
20260506214542 9 229 19.3 27.4 0.00 0.05 0.00 77 1011.6
20260506214241 9 230 19.3 27.4 0.00 0.05 0.00 77 1011.7
20260506213940 9 228 17.7 24.1 0.00 0.05 0.00 77 1011.6
20260506213639 9 231 17.7 24.1 0.00 0.05 0.00 78 1011.7
20260506213339 9 230 17.7 24.1 0.00 0.05 0.00 77 1011.6
20260506213038 9 229 16.1 25.7 0.00 0.05 0.00 77 1011.6
20260506212737 9 235 14.5 27.4 0.03 0.05 0.00 77 1011.6
20260506212436 9 233 17.7 27.4 0.03 0.05 0.00 77 1011.6
20260506212135 9 232 17.7 29.0 0.03 0.05 0.00 77 1011.5
20260506211834 9 232 17.7 29.0 0.03 0.05 0.00 76 1011.6
20260506211533 9 240 22.5 29.0 0.03 0.05 0.00 76 1011.4
20260506211232 9 236 19.3 29.0 0.03 0.05 0.00 76 1011.5
20260506210931 9 231 19.3 29.0 0.03 0.05 0.00 76 1011.5
20260506210631 9 234 17.7 27.4 0.03 0.05 0.00 75 1011.6
20260506210330 9 231 17.7 27.4 0.03 0.05 0.00 75 1011.6
20260506210029 10 231 16.1 27.4 0.03 0.05 0.00 75 1011.4
20260506205728 10 242 14.5 24.1 0.03 0.05 0.00 75 1011.4
20260506204825 9 241 14.5 32.2 0.03 0.05 0.00 74 1011.5
20260506204524 9 237 16.1 32.2 0.03 0.05 0.00 74 1011.3
20260506204224 9 245 17.7 32.2 0.00 0.03 0.00 74 1011.4
20260506203923 9 235 16.1 27.4 0.00 0.03 0.00 74 1011.4
20260506203622 9 241 16.1 27.4 0.00 0.03 0.00 73 1011.4
20260506203321 9 230 19.3 27.4 0.00 0.03 0.00 73 1011.2
20260506203020 10 232 16.1 24.1 0.00 0.03 0.00 72 1011.2
20260506202719 10 238 16.1 24.1 0.00 0.03 0.00 72 1011.1
20260506202418 10 238 16.1 24.1 0.00 0.03 0.00 70 1011.1
20260506202117 10 250 12.9 20.9 0.00 0.03 0.00 71 1011.1
20260506201817 10 246 16.1 20.9 0.00 0.03 0.00 74 1011.1
20260506201516 9 241 12.9 20.9 0.00 0.03 0.00 74 1011.0
20260506201215 9 238 14.5 20.9 0.00 0.03 0.00 74 1011.0
20260506200914 9 236 14.5 22.5 0.00 0.03 0.00 75 1011.0
20260506200613 9 234 14.5 27.4 0.00 0.03 0.00 74 1010.9
20260506200312 10 237 16.1 27.4 0.00 0.03 0.00 74 1010.9
20260506200011 10 235 16.1 27.4 0.00 0.03 0.00 74 1010.9
20260506195710 10 236 16.1 24.1 0.00 0.03 0.00 74 1010.9
20260506195410 10 230 17.7 25.7 0.00 0.03 0.00 73 1010.9
20260506195109 10 239 16.1 32.2 0.00 0.03 0.00 73 1011.0
20260506194808 10 238 16.1 32.2 0.00 0.03 0.00 73 1011.1
20260506194507 10 241 20.9 32.2 0.00 0.03 0.00 73 1010.9
20260506194206 10 241 19.3 30.6 0.00 0.03 0.00 73 1010.9
20260506193905 10 232 16.1 27.4 0.00 0.03 0.00 72 1010.9
20260506193604 10 241 19.3 27.4 0.00 0.03 0.00 72 1010.9
20260506193303 10 236 17.7 27.4 0.00 0.03 0.00 72 1010.8
20260506193003 10 234 17.7 27.4 0.00 0.03 0.00 72 1010.7
20260506192702 10 244 17.7 27.4 0.03 0.03 0.00 72 1010.6
20260506192401 10 235 20.9 29.0 0.03 0.03 0.00 71 1010.7
20260506192100 10 235 20.9 29.0 0.03 0.03 0.00 71 1010.6
20260506191759 10 232 20.9 29.0 0.03 0.03 0.00 71 1010.8
20260506191458 10 233 20.9 29.0 0.03 0.03 0.00 71 1010.8
20260506191157 10 236 20.9 27.4 0.03 0.03 0.00 70 1010.7
20260506190857 10 236 20.9 27.4 0.03 0.03 0.00 70 1010.6
20260506190556 10 238 17.7 25.7 0.03 0.03 0.00 70 1010.6
20260506190255 10 233 16.1 25.7 0.03 0.03 0.00 70 1010.7
20260506185954 10 238 14.5 25.7 0.03 0.03 0.00 71 1010.4
20260506185653 10 238 16.1 24.1 0.03 0.03 0.00 70 1010.6
20260506185352 10 240 16.1 27.4 0.03 0.03 0.00 70 1010.5
20260506185051 10 241 16.1 27.4 0.03 0.03 0.00 70 1010.5
20260506184750 10 241 17.7 30.6 0.03 0.03 0.00 69 1010.5
20260506184449 11 233 17.7 33.8 0.03 0.03 0.00 69 1010.5
20260506184148 11 240 20.9 33.8 0.03 0.03 0.00 69 1010.4
20260506183847 11 241 20.9 33.8 0.03 0.03 0.00 69 1010.4
20260506183546 11 240 19.3 32.2 0.00 0.00 0.00 68 1010.5
20260506183245 11 231 24.1 32.2 0.00 0.00 0.00 68 1010.4
20260506182943 11 270 0.0 20.9 0.00 0.00 0.00 68 1010.4
20260506182757 11 237 25.7 38.6 0.00 0.10 0.00 68 1010.4
20260506182456 11 236 27.4 35.4 0.00 0.10 0.00 68 1010.4
20260506182155 11 234 24.1 38.6 0.00 0.10 0.00 68 1010.3
20260506181854 11 233 25.7 40.2 0.00 0.10 0.00 68 1010.3
20260506181554 11 228 24.1 40.2 0.00 0.10 0.00 67 1010.2
20260506181253 11 229 32.2 40.2 0.00 0.10 0.00 67 1010.1
20260506180952 11 231 27.4 37.0 0.00 0.10 0.00 67 1010.1
20260506180651 11 233 27.4 33.8 0.00 0.10 0.00 66 1010.0
20260506180350 11 232 19.3 35.4 0.00 0.10 0.00 67 1010.0
20260506180049 11 235 19.3 35.4 0.00 0.10 0.00 67 1010.0
20260506175749 11 231 24.1 37.0 0.00 0.10 0.00 68 1010.0
20260506175448 11 229 24.1 37.0 0.00 0.10 0.00 69 1009.9
20260506175147 11 226 29.0 37.0 0.00 0.10 0.00 68 1009.9
20260506174846 11 231 25.7 37.0 0.00 0.10 0.00 68 1009.9
20260506174545 11 228 24.1 35.4 0.00 0.10 0.00 67 1009.8
20260506174244 11 233 25.7 35.4 0.00 0.10 0.00 67 1009.7
20260506173943 11 230 20.9 35.4 0.00 0.10 0.00 67 1009.6
20260506173642 11 234 24.1 35.4 0.00 0.10 0.00 65 1009.5
20260506173342 11 234 20.9 38.6 0.00 0.10 0.00 66 1009.4
20260506173041 11 239 25.7 48.3 0.00 0.10 0.00 65 1009.2
20260506172740 11 248 29.0 48.3 0.00 0.10 0.00 65 1009.1
20260506172439 11 247 30.6 48.3 0.00 0.10 0.00 65 1009.0
20260506172138 11 252 29.0 45.1 0.00 0.10 0.00 65 1008.8
20260506171837 11 256 29.0 43.5 0.00 0.10 0.00 66 1008.8
20260506171536 11 252 30.6 46.7 0.00 0.10 0.00 65 1008.7
20260506171236 11 242 27.4 48.3 0.00 0.10 0.00 66 1008.7
20260506170935 11 249 29.0 48.3 0.00 0.10 0.00 65 1008.6
20260506170634 12 262 32.2 48.3 0.00 0.10 0.00 64 1008.6
20260506170333 12 258 32.2 46.7 0.00 0.10 0.00 65 1008.6
20260506170032 12 244 29.0 41.8 0.00 0.10 0.00 65 1008.7
20260506165731 12 250 25.7 48.3 0.00 0.10 0.00 65 1008.7
20260506165430 12 253 29.0 48.3 0.00 0.10 0.00 65 1008.7
20260506165129 12 255 32.2 49.9 0.00 0.10 0.00 65 1008.7
20260506164828 12 261 29.0 54.7 0.00 0.10 0.00 65 1008.5
20260506164527 12 264 35.4 54.7 0.00 0.10 0.00 64 1008.7
20260506164227 12 257 37.0 54.7 0.00 0.10 0.00 64 1008.4
20260506163926 12 245 32.2 53.1 0.00 0.10 0.00 65 1008.5
20260506163625 12 255 25.7 53.1 0.00 0.10 0.00 66 1008.6
20260506163324 12 235 33.8 53.1 0.00 0.10 0.00 67 1008.5
20260506163023 12 228 30.6 41.8 0.00 0.10 0.00 70 1008.5
20260506162722 12 231 29.0 40.2 0.00 0.10 0.00 70 1008.5
20260506162421 12 235 19.3 38.6 0.00 0.10 0.00 70 1008.6
20260506162120 12 250 24.1 38.6 0.00 0.10 0.00 70 1008.5
20260506161819 12 232 29.0 38.6 0.00 0.10 0.00 70 1008.4
20260506161518 12 251 24.1 40.2 0.00 0.10 0.00 70 1008.4
20260506161217 12 262 24.1 51.5 0.00 0.10 0.00 70 1008.2
20260506160916 12 249 25.7 51.5 0.00 0.10 0.00 70 1008.1
20260506160616 12 238 33.8 51.5 0.00 0.10 0.00 69 1008.0
20260506160315 13 244 32.2 48.3 0.00 0.10 0.00 67 1008.1
20260506160014 13 248 32.2 49.9 0.03 0.10 0.00 67 1007.9
20260506155713 13 252 30.6 53.1 0.03 0.10 0.00 66 1008.1
20260506155412 13 247 32.2 54.7 0.03 0.10 0.00 65 1008.0
20260506155111 13 242 38.6 54.7 0.03 0.10 0.00 64 1008.1
20260506154810 14 232 38.6 54.7 0.00 0.08 0.00 64 1008.1
20260506154509 15 237 33.8 54.7 0.00 0.08 0.00 63 1007.9
20260506154209 16 232 37.0 54.7 0.00 0.08 0.00 61 1007.9
20260506153908 16 225 20.9 32.2 0.00 0.08 0.00 64 1007.4
20260506153607 16 223 24.1 32.2 0.00 0.08 0.00 63 1007.2
20260506153306 16 225 27.4 32.2 0.00 0.08 0.00 61 1007.1
20260506153005 17 221 19.3 29.0 0.00 0.08 0.00 61 1007.0
20260506152704 17 207 19.3 29.0 0.00 0.08 0.00 61 1006.9
20260506152403 17 217 19.3 29.0 0.00 0.08 0.00 61 1006.8
20260506152102 17 216 20.9 29.0 0.00 0.08 0.00 59 1006.6
20260506151801 17 213 19.3 29.0 0.00 0.08 0.00 59 1006.6
20260506151500 17 217 17.7 29.0 0.00 0.08 0.00 58 1006.6
20260506151159 17 215 17.7 29.0 0.00 0.08 0.00 58 1006.5
20260506150858 17 216 17.7 27.4 0.00 0.08 0.00 56 1006.6
20260506150557 17 212 16.1 27.4 0.00 0.08 0.00 58 1006.6
20260506150303 17 211 17.7 24.1 0.00 0.08 0.00 57 1006.7
20260506145956 17 207 16.1 22.5 0.00 0.08 0.00 58 1006.6
20260506145655 17 212 14.5 22.5 0.00 0.08 0.00 60 1006.9
20260506145354 17 215 11.3 19.3 0.00 0.08 0.00 58 1006.7
20260506145053 17 206 9.7 19.3 0.00 0.08 0.00 57 1006.7
20260506144752 17 202 9.7 19.3 0.00 0.08 0.00 58 1006.6
20260506144451 17 221 12.9 19.3 0.00 0.08 0.00 58 1006.7
20260506144151 17 210 12.9 17.7 0.00 0.08 0.00 59 1006.7
20260506143850 17 227 11.3 14.5 0.00 0.08 0.00 59 1006.8
20260506143549 17 216 8.0 14.5 0.00 0.08 0.00 59 1006.7
20260506143248 17 181 4.8 12.9 0.00 0.08 0.00 64 1006.7
20260506142947 16 210 6.4 14.5 0.00 0.08 0.00 65 1006.9
20260506142646 16 207 4.8 17.7 0.00 0.08 0.00 66 1007.0
20260506142345 16 213 9.7 19.3 0.00 0.08 0.00 66 1006.9
20260506142044 16 212 12.9 22.5 0.00 0.08 0.00 67 1007.0
20260506141744 16 208 11.3 25.7 0.00 0.08 0.00 68 1006.9
20260506141443 16 203 11.3 25.7 0.00 0.08 0.00 68 1007.0
20260506141142 16 210 16.1 25.7 0.00 0.08 0.00 69 1007.1
20260506140841 16 211 16.1 22.5 0.00 0.08 0.00 70 1007.1
20260506140540 16 223 14.5 19.3 0.00 0.08 0.00 72 1007.0
20260506140239 15 212 11.3 19.3 0.00 0.08 0.00 72 1007.0
20260506135939 15 219 12.9 19.3 0.05 0.08 0.00 71 1007.0
20260506135638 15 220 12.9 19.3 0.03 0.05 0.00 71 1007.1
20260506135337 15 214 11.3 20.9 0.03 0.05 0.00 72 1007.2
20260506135036 15 209 12.9 20.9 0.03 0.05 0.00 71 1007.3
20260506134735 15 211 11.3 20.9 0.03 0.05 0.00 71 1007.2
20260506134434 15 223 8.0 19.3 0.03 0.05 0.00 71 1007.2
20260506134133 15 223 4.8 19.3 0.00 0.03 0.00 72 1007.2
20260506133832 15 219 9.7 19.3 0.00 0.03 0.00 70 1007.2
20260506133531 15 167 6.4 20.9 0.00 0.03 0.00 68 1007.2
20260506133230 15 96 4.8 20.9 0.00 0.03 0.00 67 1007.0
20260506132929 16 200 9.7 20.9 0.00 0.03 0.00 66 1007.1
20260506132628 16 132 6.4 12.9 0.00 0.03 0.00 63 1007.0
20260506132328 16 218 6.4 11.3 0.00 0.03 0.00 64 1007.0
20260506132027 16 245 3.2 11.3 0.00 0.03 0.00 60 1007.0
20260506131726 15 292 3.2 11.3 0.00 0.03 0.00 60 1007.0
20260506131425 15 313 3.2 11.3 0.00 0.03 0.00 57 1006.9
20260506131124 16 311 6.4 11.3 0.00 0.03 0.00 58 1006.8
20260506130823 16 313 4.8 11.3 0.00 0.03 0.00 56 1006.6
20260506130522 16 307 6.4 11.3 0.00 0.03 0.00 56 1006.6
20260506130221 16 311 6.4 9.7 0.00 0.03 0.00 56 1006.6
20260506125920 16 311 4.8 9.7 0.00 0.00 0.00 55 1006.6
20260506125620 16 7 4.8 8.0 0.00 0.00 0.00 54 1006.5
20260506125319 16 51 4.8 9.7 0.00 0.00 0.00 53 1006.5
20260506125018 16 18 3.2 11.3 0.00 0.00 0.00 53 1006.5
20260506124717 16 39 6.4 12.9 0.00 0.00 0.00 52 1006.4
20260506124416 16 63 6.4 12.9 0.00 0.00 0.00 52 1006.5
20260506124115 17 67 6.4 12.9 0.00 0.00 0.00 51 1006.6
20260506123814 17 23 3.2 9.7 0.00 0.00 0.00 50 1006.6
20260506123513 17 9 1.6 9.7 0.00 0.00 0.00 50 1006.7
20260506123213 17 81 6.4 9.7 0.00 0.00 0.00 49 1006.7
20260506122912 17 76 4.8 11.3 0.00 0.00 0.00 51 1006.6
20260506122611 17 46 3.2 14.5 0.00 0.00 0.00 51 1006.7
20260506122310 17 87 6.4 14.5 0.00 0.00 0.00 51 1006.7
20260506122009 17 85 6.4 14.5 0.00 0.00 0.00 52 1006.8
20260506121708 17 6 3.2 9.7 0.00 0.00 0.00 52 1006.8
20260506121407 17 26 4.8 9.7 0.00 0.00 0.00 51 1006.6
20260506121106 17 25 3.2 16.1 0.00 0.00 0.00 51 1006.6
20260506120806 17 0 4.8 16.1 0.00 0.00 0.00 51 1006.7
20260506120505 17 30 8.0 16.1 0.00 0.00 0.00 52 1006.7
20260506120204 17 50 6.4 16.1 0.00 0.00 0.00 52 1006.5
20260506115903 17 61 8.0 16.1 0.00 0.05 0.00 51 1006.6
20260506115602 17 80 4.8 12.9 0.00 0.05 0.00 52 1006.6
20260506115301 17 48 6.4 12.9 0.00 0.05 0.00 50 1006.7
20260506115000 17 94 8.0 12.9 0.00 0.05 0.00 51 1006.8
20260506114659 17 68 4.8 9.7 0.00 0.05 0.00 50 1006.9
20260506114358 17 98 4.8 11.3 0.00 0.05 0.00 50 1006.8
20260506114057 18 70 4.8 14.5 0.00 0.05 0.00 49 1006.8
20260506113756 17 95 4.8 16.1 0.00 0.05 0.00 50 1006.9
20260506113455 17 73 4.8 16.1 0.00 0.05 0.00 51 1006.8
20260506113155 17 61 9.7 16.1 0.00 0.05 0.00 50 1006.9
20260506112854 17 80 8.0 14.5 0.00 0.05 0.00 50 1006.8
20260506112553 17 73 8.0 29.0 0.00 0.05 0.00 49 1006.9
20260506112252 17 101 4.8 29.0 0.00 0.05 0.00 51 1007.0
20260506111951 17 65 11.3 29.0 0.00 0.05 0.00 50 1006.8
20260506111650 17 80 8.0 16.1 0.00 0.05 0.00 49 1006.9
20260506111349 17 58 4.8 12.9 0.00 0.05 0.00 50 1006.9
20260506111048 17 54 6.4 14.5 0.00 0.05 0.00 48 1007.0
20260506110747 17 20 8.0 19.3 0.00 0.05 0.00 48 1007.1
20260506110447 17 38 8.0 19.3 0.00 0.05 0.00 49 1007.1
20260506110146 17 54 11.3 19.3 0.00 0.05 0.00 49 1007.0
20260506105845 18 53 11.3 17.7 0.00 0.05 0.00 46 1007.2
20260506105544 18 28 6.4 16.1 0.00 0.05 0.00 48 1007.2
20260506105243 17 163 4.8 16.1 0.00 0.05 0.00 49 1007.3
20260506104942 17 64 8.0 16.1 0.00 0.05 0.00 49 1007.4
20260506104641 17 56 8.0 12.9 0.00 0.05 0.00 51 1007.4
20260506104340 17 255 4.8 9.7 0.00 0.05 0.00 50 1007.4
20260506104040 17 53 3.2 12.9 0.00 0.05 0.00 49 1007.6
20260506103739 17 78 6.4 12.9 0.00 0.05 0.00 51 1007.6
20260506103438 17 9 6.4 12.9 0.00 0.05 0.00 52 1007.4
20260506103137 17 333 4.8 12.9 0.00 0.05 0.00 51 1007.6
20260506102836 17 319 6.4 12.9 0.00 0.05 0.00 53 1007.6
20260506102535 17 326 6.4 14.5 0.00 0.05 0.00 52 1007.6
20260506102234 17 302 3.2 14.5 0.00 0.05 0.00 52 1007.6
20260506101933 16 334 8.0 14.5 0.00 0.05 0.00 52 1007.6
20260506101633 17 20 6.4 14.5 0.00 0.05 0.00 52 1007.7
20260506101332 16 356 4.8 9.7 0.00 0.05 0.00 54 1007.7
20260506101031 16 323 4.8 12.9 0.00 0.05 0.00 51 1007.8
20260506100128 16 67 8.0 12.9 0.00 0.05 0.00 52 1007.8
20260506095828 16 34 4.8 11.3 0.00 0.05 0.00 54 1007.9
20260506095527 16 75 6.4 14.5 0.00 0.05 0.00 52 1007.9
20260506095226 16 77 3.2 14.5 0.00 0.05 0.00 53 1007.8
20260506094925 16 53 6.4 14.5 0.00 0.05 0.00 52 1007.8
20260506094624 16 83 1.6 9.7 0.00 0.05 0.00 56 1008.0
20260506094323 16 328 4.8 14.5 0.00 0.05 0.00 53 1007.8
20260506094022 17 46 6.4 14.5 0.00 0.05 0.00 51 1007.9
20260506093721 17 85 8.0 14.5 0.00 0.05 0.00 53 1007.7
20260506093421 16 84 3.2 9.7 0.00 0.05 0.00 53 1007.8
20260506093119 16 99 6.4 9.7 0.00 0.05 0.00 54 1007.8
20260506092819 16 349 3.2 9.7 0.00 0.05 0.00 54 1007.8
20260506092517 16 17 4.8 9.7 0.00 0.05 0.00 53 1007.8
20260506092216 16 14 4.8 9.7 0.00 0.05 0.00 54 1008.0
20260506091915 16 311 1.6 6.4 0.00 0.05 0.00 56 1008.0
20260506091614 16 308 1.6 8.0 0.00 0.05 0.00 56 1008.0
20260506091314 16 98 3.2 8.0 0.00 0.05 0.00 56 1008.0
20260506091013 15 100 4.8 8.0 0.00 0.05 0.00 57 1007.9
20260506090712 15 74 4.8 11.3 0.00 0.05 0.00 58 1008.0
20260506090411 15 336 1.6 11.3 0.00 0.05 0.00 57 1007.9
20260506090110 15 41 6.4 11.3 0.00 0.05 0.00 58 1007.7
20260506085809 15 37 4.8 9.7 0.00 0.05 0.00 58 1007.7
20260506085508 15 23 4.8 8.0 0.00 0.05 0.00 57 1007.8
20260506085208 15 356 3.2 8.0 0.00 0.05 0.00 59 1007.9
20260506084906 15 25 4.8 8.0 0.00 0.05 0.00 58 1008.1
20260506084606 15 265 3.2 8.0 0.00 0.05 0.00 58 1008.0
20260506084305 15 314 4.8 8.0 0.00 0.05 0.00 59 1008.0
20260506084004 15 293 3.2 9.7 0.00 0.05 0.00 59 1008.0
20260506083703 15 287 1.6 9.7 0.00 0.05 0.00 58 1008.0
20260506083402 15 311 4.8 9.7 0.00 0.05 0.00 59 1008.1
20260506083101 15 260 3.2 9.7 0.00 0.05 0.00 59 1008.1
20260506082800 15 253 3.2 8.0 0.00 0.05 0.00 57 1008.2
20260506082500 15 263 6.4 8.0 0.00 0.05 0.00 57 1008.2
20260506082159 15 18 1.6 6.4 0.00 0.05 0.00 58 1008.0
20260506081858 15 330 1.6 6.4 0.00 0.05 0.00 58 1008.0
20260506081256 15 299 3.2 8.0 0.00 0.05 0.00 58 1007.9
20260506080955 14 304 3.2 8.0 0.00 0.05 0.00 59 1008.0
20260506080353 14 239 3.2 6.4 0.00 0.05 0.00 61 1008.0
20260506073344 14 25 1.6 4.8 0.00 0.05 0.00 61 1008.1
20260506073043 13 331 1.6 6.4 0.00 0.05 0.00 61 1008.1
20260506072742 13 316 1.6 6.4 0.00 0.05 0.00 62 1008.2
20260506072441 13 293 1.6 8.0 0.00 0.05 0.00 63 1008.1
20260506072141 14 272 3.2 8.0 0.00 0.05 0.00 63 1008.3
20260506071840 13 242 4.8 8.0 0.00 0.05 0.00 62 1008.3
20260506071539 14 233 6.4 9.7 0.00 0.05 0.00 64 1008.2
20260506071238 13 231 4.8 9.7 0.00 0.05 0.00 64 1008.4
20260506070937 13 222 4.8 9.7 0.00 0.05 0.00 65 1008.4
20260506070636 13 229 6.4 8.0 0.00 0.05 0.00 65 1008.4
20260506070335 13 226 4.8 6.4 0.00 0.05 0.00 66 1008.4
20260506062424 13 213 4.8 8.0 0.00 0.05 0.00 68 1008.4
20260506062123 13 221 3.2 8.0 0.00 0.05 0.00 67 1008.4
20260506061822 13 230 3.2 8.0 0.00 0.05 0.00 68 1008.3
20260506061521 13 231 4.8 9.7 0.00 0.05 0.00 69 1008.4
20260506061221 13 196 4.8 9.7 0.00 0.05 0.00 69 1008.4
20260506060920 12 211 4.8 9.7 0.00 0.05 0.00 70 1008.3
20260506060619 12 217 6.4 9.7 0.00 0.05 0.00 71 1008.4
20260506060318 12 204 4.8 9.7 0.00 0.05 0.00 71 1008.3
20260506051202 10 144 3.2 4.8 0.00 0.05 0.00 76 1008.5
20260506050901 10 136 1.6 6.4 0.00 0.05 0.00 76 1008.6
20260506050600 10 137 3.2 6.4 0.00 0.05 0.00 76 1008.7
20260506050259 10 161 1.6 6.4 0.00 0.05 0.00 76 1008.7